Location: Molveno
(46.1500°N, 10.9667°E)
Time: 17:08:32
(UTC+00:00)

IGS 5A - Pass Details

Date: 05 July 2020
Orbit: 582 x 589 km, 97.6° (Epoch: 08 August)

Event Time Altitude Azimuth Distance (km) Brightness Sun altitude
Exits shadow 20:35:37 11° 179° (S) 1,853 5.5 -11.7°
Maximum altitude 20:39:35 61° 259° (W) 671 3.9 -12.1°
Drops below altitude 10° 20:43:43 10° 340° (NNW) 1,921 7.4 -12.5°
Sets 20:45:54 0° 344° (NNW) 2,825 8.4 -12.7°
